Tracking 29892 objects as of 21-Nov-2024
HD Live streaming from Space Station
objects crossing your sky now

CZ-6A DEB

Track CZ-6A DEB now!
10-day predictions


NORAD ID: 56590
Int'l Code: 2022-151ADN
Perigee: 778.5 km
Apogee: 835.9 km
Inclination: 98.7 °
Period: 100.9 minutes
Semi major axis: 7178 km
RCS: Unknown
Launch date: November 11, 2022
Source: People's Republic of China (PRC)
Launch site: Taiyaun Space Center, China (TSC)

Note: This is SATELLITE DEBRIS
Your satellite tracking list
Your tracking list is empty




NASA's NSSDC Master Catalog

Two Line Element Set (TLE):
1 56590U 22151ADN 24324.24468178  .00003277  00000-0  13400-2 0  9990
2 56590  98.7022 332.8588 0039936 332.3439  27.5617 14.27513118 81830
Source of the keplerian elements: AFSPC